Miscellaneous Local Product
Issued by NWS Hastings, NE

Home | Current Version | Previous Version | Text Only | Print | Product List | Glossary On
Versions: 1 2 3 4 5 6 7 8 9 10 11 12 13 14 15 16 17 18 19 20 21 22 23 24 25 26 27 28 29 30 31 32 33 34 35 36 37 38 39 40 41 42 43 44 45 46 47 48 49 50
000
AXUS43 KGID 231602
MISGRI

GID CWA HOURLY WEATHER ROUNDUP
NATIONAL WEATHER SERVICE HASTINGS NE
1100 AM CDT WED JUL 23 2014

NOTE: "FAIR" INDICATES FEW OR NO CLOUDS BELOW 12,000 FEET WITH NO
SIGNIFICANT WEATHER AND/OR OBSTRUCTIONS TO VISIBILITY.

...SOUTH CENTRAL NEBRASKA...

CITY           SKY/WX    TMP DP  RH WIND       PRES   REMARKS
GRAND ISLAND   CLOUDY    74  59  59 E8        30.29S
HASTINGS       CLOUDY    73  58  59 E6        30.28S
KEARNEY        CLOUDY    68  59  73 SE6       30.30F
ORD            CLOUDY    72  58  61 E7        30.28F
YORK           MOSUNNY   75  63  64 NE6       30.27F
AURORA         PTSUNNY   74  61  61 E8        30.27F
LEXINGTON      LGT RAIN  66  64  93 SW13G21   30.28F
HOLDREGE       CLOUDY    68  61  79 W8        30.34R
HEBRON         MOSUNNY   77  60  56 NE9       30.24S

...NEBRASKA PANHANDLE...

CITY           SKY/WX    TMP DP  RH WIND       PRES   REMARKS
CHADRON        SUNNY     83  58  42 S16       30.24F
ALLIANCE       SUNNY     79  56  45 S15       30.31F
SCOTTSBLUFF    MOSUNNY   79  62  56 S15       30.32F
SIDNEY         SUNNY     78  62  57 SE20      30.35S

...WESTERN AND NORTH CENTRAL NEBRASKA...

CITY           SKY/WX    TMP DP  RH WIND       PRES   REMARKS
VALENTINE      MOSUNNY   79  61  53 SE18      30.27F
AINSWORTH      MOSUNNY   74  60  61 SE15      30.28R
ONEILL         MOSUNNY   75  53  45 SE9       30.30F
BROKEN BOW     CLOUDY    68  60  75 E12       30.29F
IMPERIAL       CLOUDY    68  58  70 VRB6      30.27R
NORTH PLATTE   CLOUDY    68  62  81 W6        30.28R
MCCOOK         TSTM      66  63  90 E5        30.33F

...EASTERN NEBRASKA...

CITY           SKY/WX    TMP DP  RH WIND       PRES   REMARKS
NORFOLK        SUNNY     76  56  49 E7        30.27F
SO SIOUX CITY  SUNNY     77  59  53 E6        30.26F
TEKAMAH        SUNNY     78  61  55 VRB5      30.26R
COLUMBUS       SUNNY     77  57  50 E8        30.27S
ALBION         MOSUNNY   73  57  56 E7        30.29S
OMAHA EPPLEY   MOSUNNY   78  59  51 N7        30.25R
OFFUTT AFB     SUNNY     78  60  54 VRB2      30.25R
MILLARD        SUNNY     77  60  54 CALM      30.26R
LINCOLN        SUNNY     80  59  48 NE13      30.25F
NEBRASKA CITY  SUNNY     76  62  61 NE6       30.24S
BEATRICE       SUNNY     76  62  61 NE12      30.22F
FALLS CITY     MOSUNNY   79  67  66 VRB7      30.22R

...NORTHERN KANSAS...

CITY           SKY/WX    TMP DP  RH WIND       PRES   REMARKS
GOODLAND       PTSUNNY   73  67  81 NE25G32   30.38R
HILL CITY      CLOUDY    76  65  68 NE10      30.31R
NORTON         CLOUDY    70  57  64 N13       30.36R
PHILLIPSBURG   SUNNY     77  64  65 NE7       30.27R
SMITH CENTER   MOSUNNY   75  63  64 NE10      30.27R
HAYS           MOSUNNY   79  64  61 E13       30.25S
RUSSELL        MOSUNNY   81  67  62 E7        30.22R
CONCORDIA      MOSUNNY   78  65  63 NE13      30.21R
SALINA         CLOUDY    75  65  70 NW21G26   30.18R
TOPEKA         PTSUNNY   82  67  60 NW7       30.18R



USA.gov is the U.S. government's official web portal to all federal, state and local government web resources and services.